#timestamp,LO_Frequency,Hit 
1503136815.6,286047000.2,N
1503136835.5,286047001.5,N
1503136855.3,286047000.4,N
1503136875.1,286046997.0,N
1503136895.9,286046998.9,N
1503136915.7,286046999.1,N
1503136935.5,286046995.7,N
1503136955.4,286046997.3,N
1503136975.2,286046995.3,N
1503136995.0,286046998.7,N
1503136995.9,286046998.7,N
1503137015.8,286046998.5,N
1503137035.6,286046996.2,N
1503137055.4,286046994.4,N
1503137075.3,286046992.5,N
1503137095.1,286046991.2,N
1503137096.0,286046991.2,N
1503137115.8,286046992.1,N
1503137135.7,286046993.6,N
1503137155.5,286046995.3,N
1503137175.3,286046997.4,N
1503137195.1,286046996.8,N
1503137215.9,286046995.7,N
1503137235.7,286046994.8,N
1503137255.5,286046990.2,N
1503137275.4,286046994.5,N
1503137295.2,286046994.5,N
1503137315.0,286046994.5,N
1503137315.9,286046994.5,N
1503137335.8,286046992.9,N
1503137355.6,286046991.9,N
1503137375.4,286046991.7,N
1503137395.3,286046994.5,N
1503137415.1,286046997.9,N
1503137416.0,286046997.9,N
1503137435.8,286046995.7,N
1503137455.7,286046995.2,N
1503137475.5,286046997.4,N
1503137495.3,286046995.2,N
1503137515.2,286046994.2,N
1503137535.9,286046992.7,P
1503137555.7,286046996.5,P
1503137575.6,286047000.7,N
1503137595.4,286047001.8,N
1503137615.2,286047003.0,N
1503137635.1,286047004.5,N
1503137636.0,286047004.5,N
1503137655.8,286047007.6,N
1503137675.6,286047003.1,N
1503137695.5,286047003.0,N
1503137715.3,286047002.2,N
1503137735.1,286047001.0,N
1503137755.9,286047000.8,N
1503137775.7,286046997.1,N
1503137795.5,286046996.6,N
1503137815.3,286046995.5,N
1503137835.2,286046997.7,N
1503137855.0,286046999.1,N
1503137855.9,286046999.1,N
1503137875.7,286046997.2,N
1503137895.6,286046996.9,N
1503137915.4,286046998.2,N
1503137935.2,286046999.6,N
1503137955.1,286046997.1,N
1503137956.0,286046997.1,N
1503137975.8,286046999.4,N
1503137995.6,286046999.0,N
1503138015.5,286046995.7,N
1503138035.3,286046995.9,N
1503138055.1,286046995.7,N
1503138075.9,286046995.8,N
1503138095.7,286047001.2,N
1503138115.5,286046998.4,N
1503138135.3,286046997.4,N
1503138155.2,286046995.6,N
1503138175.0,286046995.3,N
1503138175.9,286046995.3,N
1503138195.7,286046996.8,N
1503138215.6,286046996.6,N
1503138235.4,286047000.4,N
1503138255.2,286047001.2,N
1503138275.1,286046996.8,N
1503138276.0,286046996.8,N
1503138295.8,286046996.8,N
1503138315.6,286046997.8,N
1503138335.5,286046995.7,N
1503138355.3,286046997.9,N
1503138375.1,286046998.2,N
1503138395.9,286046999.7,N
1503138415.7,286047000.4,N
1503138435.5,286047003.6,N
1503138455.4,286047001.4,N
1503138475.2,286047000.2,N
1503138495.0,286047000.8,N
1503138495.9,286047000.8,N
1503138515.8,286046996.6,N
1503138535.6,286047001.2,N
1503138555.4,286047001.0,N
1503138575.2,286046998.7,N
1503138595.1,286047002.3,N
1503138596.0,286047002.3,N
1503138615.8,286046997.3,N
1503138635.6,286046998.3,N
1503138655.5,286046997.4,N
1503138675.3,286046995.0,N
1503138695.1,286046997.3,N
1503138715.9,286046998.7,N
1503138735.7,286046996.6,N
1503138755.5,286046997.6,N
1503138775.4,286046996.0,N
1503138795.2,286046992.1,P
1503138815.0,286046995.0,N
1503138815.9,286046995.0,N
1503138835.8,286046995.1,N
1503138855.6,286046993.5,P
1503138875.5,286046997.4,P
1503138895.3,286046997.0,N
1503138915.1,286046998.3,N
1503138935.8,286047000.1,N
1503138955.7,286047000.7,N
1503138975.5,286047002.0,N
1503138995.3,286047002.9,N
1503139015.2,286047006.7,N
1503139035.9,286047003.0,N
1503139055.7,286047001.5,N
1503139075.6,286047000.0,N
1503139095.4,286046996.5,N
1503139115.2,286046999.2,N
1503139135.1,286046997.1,N
1503139136.0,286046997.1,N
1503139155.8,286046999.2,N
1503139175.6,286046997.7,N
1503139195.5,286046997.5,N
1503139215.3,286046997.1,N
1503139235.1,286046998.4,N
1503139255.8,286046999.5,N
1503139275.7,286046996.6,N
1503139295.5,286046997.4,N
1503139315.3,286046999.5,N
1503139335.2,286046999.4,N
1503139355.9,286046999.6,N
1503139375.7,286046999.1,N
1503139395.6,286046997.0,N
1503139415.4,286047001.2,N
1503139435.2,286047000.3,N
1503139455.1,286047000.8,N
1503139456.0,286047000.8,N
1503139475.8,286047001.2,N
1503139495.6,286046998.7,N
1503139515.5,286047001.1,N
1503139535.3,286047001.4,N
1503139555.1,286047002.9,N
1503139575.8,286047001.5,N
1503139595.7,286047004.3,N
1503139615.5,286047001.8,N
1503139635.3,286047002.5,N
1503139655.2,286047001.0,N
1503139675.0,286046997.7,N
1503139675.9,286046997.7,N
1503139695.7,286046996.8,N
1503139715.6,286046996.7,N
1503139735.4,286046995.5,N
1503139755.2,286046995.3,N
1503139775.1,286046997.3,N
1503139776.0,286046997.3,N
1503139795.8,286046997.7,N
1503139815.6,286046997.2,N
1503139835.5,286047000.6,N
1503139855.3,286047000.7,N
1503139875.1,286047002.8,N
1503139895.9,286047005.4,N
1503139915.7,286047003.8,N
1503139935.5,286047003.1,N
1503139955.4,286047001.4,N
1503139975.2,286047002.4,N
1503139995.0,286047001.6,N
1503139995.9,286047001.6,N
1503140015.8,286047001.6,N
1503140035.6,286047005.0,N
1503140055.4,286047006.6,N
1503140075.2,286047007.5,N
1503140095.1,286047006.0,N
1503140096.0,286047006.0,N
1503140115.8,286047003.6,N
1503140135.6,286047001.4,N
1503140155.5,286047003.8,N
1503140175.3,286047008.3,N
1503140195.1,286047008.6,N
1503140215.9,286047008.8,N
1503140235.7,286047003.5,N
1503140255.5,286047001.0,N
1503140275.4,286046999.6,N
1503140295.2,286046998.2,N
1503140315.0,286047001.2,N
1503140315.9,286047001.2,N
1503140335.8,286047001.1,N
1503140355.6,286046998.8,N
1503140375.4,286046999.7,N
1503140395.3,286046999.8,N
